Location: Kott?ru
(16.6209°N, 80.6208°E)
Time: 20:09:51
(UTC+00:00)

HJ-1C - Pass Details

Date: 18 September 2020
Orbit: 432 x 443 km, 97.1° (Epoch: 28 October)

Event Time Altitude Azimuth Distance (km) Brightness Sun altitude
Exits shadow 13:41:40 37° 71° (ENE) 692 3.8 -16.3°
Drops below altitude 10° 13:44:35 10° 9° (N) 1,529 6.1 -17.0°
Sets 13:46:40 0° 1° (N) 2,398 7.2 -17.5°
